Вернуться в каталог

QIANFAN-130

АктивенСвязьPO
NORAD 69076·PAYLOAD·🇨🇳 China

Запущен May 12, 2026 с Taiyuan Satellite Launch Center

Loading…

Ближайшие Пролёты (ближайшие 24 часа)

TLE

СвежийSource: Space-Track

Эпоха: Sep 14, 2026, 14:28 UTC

1 69076U 26104D   26257.60308947  .00000125  00000-0  17437-3 0  9993
2 69076  88.9913 332.3795 0002559 100.1449 259.9990 13.51033583 17216

Отслеживайте QIANFAN-130 в реальном времени с AllMySat

Download on the App Store